TimeCDT,TemperatureF,Dew PointF,Humidity,Sea Level PressureIn,VisibilityMPH,Wind Direction,Wind SpeedMPH,Gust SpeedMPH,PrecipitationIn,Events,Conditions,WindDirDegrees,DateUTC
12:15 AM,60.8,57.2,88,29.71,10.0,West,9.2,-,N/A,,Overcast,280,2013-04-12 05:15:00
12:35 AM,60.8,55.4,82,29.71,10.0,West,9.2,-,N/A,,Overcast,280,2013-04-12 05:35:00
12:55 AM,60.8,55.4,82,29.71,10.0,West,8.1,-,N/A,,Overcast,260,2013-04-12 05:55:00
1:15 AM,60.8,55.4,82,29.72,10.0,West,10.4,-,N/A,,Overcast,270,2013-04-12 06:15:00
1:35 AM,60.8,55.4,82,29.74,10.0,West,11.5,-,N/A,,Overcast,270,2013-04-12 06:35:00
1:55 AM,59.0,53.6,82,29.74,10.0,NW,9.2,-,N/A,,Overcast,310,2013-04-12 06:55:00
2:15 AM,57.2,53.6,88,29.75,10.0,WNW,10.4,16.1,N/A,,Overcast,290,2013-04-12 07:15:00
2:35 AM,55.4,51.8,88,29.76,5.0,WNW,9.2,16.1,N/A,,Overcast,300,2013-04-12 07:35:00
2:55 AM,55.4,51.8,88,29.76,10.0,NW,8.1,-,N/A,,Overcast,310,2013-04-12 07:55:00
3:15 AM,55.4,51.8,88,29.77,10.0,WNW,12.7,18.4,N/A,,Overcast,290,2013-04-12 08:15:00
3:35 AM,53.6,50.0,88,29.78,5.0,WNW,9.2,-,N/A,,Overcast,300,2013-04-12 08:35:00
3:55 AM,53.6,50.0,88,29.79,9.0,NW,10.4,-,N/A,,Overcast,310,2013-04-12 08:55:00
4:15 AM,53.6,48.2,82,29.80,10.0,WNW,12.7,17.3,N/A,,Overcast,300,2013-04-12 09:15:00
4:35 AM,51.8,46.4,82,29.82,10.0,NW,8.1,16.1,N/A,,Overcast,310,2013-04-12 09:35:00
4:55 AM,51.8,46.4,82,29.83,10.0,WNW,6.9,-,N/A,,Overcast,300,2013-04-12 09:55:00
5:15 AM,50.0,44.6,82,29.84,10.0,WNW,8.1,-,N/A,,Overcast,300,2013-04-12 10:15:00
5:35 AM,48.2,42.8,82,29.85,10.0,WNW,8.1,-,N/A,,Mostly Cloudy,290,2013-04-12 10:35:00
5:55 AM,46.4,41.0,81,29.86,10.0,West,6.9,-,N/A,,Partly Cloudy,280,2013-04-12 10:55:00
6:15 AM,46.4,41.0,81,29.87,10.0,WNW,6.9,-,N/A,,Clear,290,2013-04-12 11:15:00
6:35 AM,46.4,41.0,81,29.88,10.0,NW,5.8,-,N/A,,Clear,310,2013-04-12 11:35:00
6:55 AM,46.4,41.0,81,29.88,10.0,WNW,6.9,-,N/A,,Clear,300,2013-04-12 11:55:00
7:15 AM,46.4,41.0,81,29.89,10.0,WNW,9.2,-,N/A,,Clear,300,2013-04-12 12:15:00
7:35 AM,48.2,41.0,76,29.90,10.0,NW,9.2,-,N/A,,Clear,320,2013-04-12 12:35:00
7:55 AM,48.2,41.0,76,29.91,10.0,North,10.4,-,N/A,,Scattered Clouds,350,2013-04-12 12:55:00
8:15 AM,48.2,41.0,76,29.92,10.0,NNW,9.2,-,N/A,,Mostly Cloudy,330,2013-04-12 13:15:00
8:35 AM,50.0,42.8,76,29.92,10.0,NNW,5.8,-,N/A,,Scattered Clouds,340,2013-04-12 13:35:00
8:55 AM,51.8,41.0,67,29.93,10.0,NNW,5.8,-,N/A,,Mostly Cloudy,340,2013-04-12 13:55:00
9:15 AM,51.8,41.0,67,29.93,10.0,NW,9.2,-,N/A,,Partly Cloudy,320,2013-04-12 14:15:00
9:55 AM,53.6,39.2,58,29.94,10.0,NW,12.7,17.3,N/A,,Clear,310,2013-04-12 14:55:00
10:15 AM,55.4,39.2,54,29.95,10.0,North,8.1,-,N/A,,Partly Cloudy,360,2013-04-12 15:15:00
10:35 AM,55.4,41.0,58,29.95,10.0,North,8.1,-,N/A,,Partly Cloudy,360,2013-04-12 15:35:00
10:55 AM,55.4,39.2,54,29.95,10.0,NNW,10.4,16.1,N/A,,Clear,330,2013-04-12 15:55:00
11:15 AM,57.2,41.0,55,29.95,10.0,NW,9.2,16.1,N/A,,Clear,320,2013-04-12 16:15:00
11:35 AM,57.2,39.2,51,29.95,10.0,WNW,8.1,-,N/A,,Clear,300,2013-04-12 16:35:00
11:55 AM,59.0,39.2,48,29.94,10.0,West,8.1,-,N/A,,Clear,270,2013-04-12 16:55:00
12:15 PM,60.8,41.0,48,29.94,10.0,WNW,6.9,-,N/A,,Clear,300,2013-04-12 17:15:00
12:35 PM,60.8,39.2,45,29.94,10.0,NW,9.2,19.6,N/A,,Clear,320,2013-04-12 17:35:00
12:55 PM,60.8,39.2,45,29.93,10.0,WNW,6.9,-,N/A,,Clear,300,2013-04-12 17:55:00
1:15 PM,62.6,39.2,42,29.93,10.0,West,11.5,19.6,N/A,,Clear,270,2013-04-12 18:15:00
1:35 PM,62.6,39.2,42,29.93,10.0,West,10.4,-,N/A,,Clear,260,2013-04-12 18:35:00
1:55 PM,64.4,39.2,40,29.93,10.0,WNW,12.7,-,N/A,,Clear,290,2013-04-12 18:55:00
2:15 PM,64.4,39.2,40,29.92,10.0,West,11.5,-,N/A,,Clear,270,2013-04-12 19:15:00
2:35 PM,64.4,37.4,37,29.92,10.0,West,9.2,17.3,N/A,,Clear,270,2013-04-12 19:35:00
2:55 PM,64.4,37.4,37,29.91,10.0,WNW,4.6,-,N/A,,Clear,290,2013-04-12 19:55:00
3:15 PM,64.4,39.2,40,29.91,10.0,NW,4.6,-,N/A,,Clear,310,2013-04-12 20:15:00
3:35 PM,64.4,37.4,37,29.90,10.0,NW,10.4,-,N/A,,Clear,320,2013-04-12 20:35:00
3:55 PM,66.2,37.4,35,29.90,10.0,WNW,8.1,-,N/A,,Clear,290,2013-04-12 20:55:00
4:15 PM,66.2,37.4,35,29.90,10.0,West,12.7,17.3,N/A,,Clear,280,2013-04-12 21:15:00
4:35 PM,66.2,35.6,32,29.90,10.0,WNW,6.9,-,N/A,,Clear,300,2013-04-12 21:35:00
4:55 PM,66.2,37.4,35,29.90,10.0,NNW,10.4,17.3,N/A,,Clear,330,2013-04-12 21:55:00
5:15 PM,66.2,37.4,35,29.91,10.0,WNW,9.2,16.1,N/A,,Clear,300,2013-04-12 22:15:00
5:35 PM,64.4,37.4,37,29.91,10.0,NW,6.9,-,N/A,,Clear,320,2013-04-12 22:35:00
5:55 PM,64.4,37.4,37,29.91,10.0,WNW,6.9,-,N/A,,Clear,300,2013-04-12 22:55:00
6:15 PM,64.4,37.4,37,29.91,10.0,WNW,4.6,-,N/A,,Clear,290,2013-04-12 23:15:00
6:35 PM,64.4,37.4,37,29.91,10.0,NW,3.5,-,N/A,,Clear,310,2013-04-12 23:35:00
6:55 PM,62.6,39.2,42,29.91,10.0,Calm,Calm,-,N/A,,Clear,0,2013-04-12 23:55:00
7:15 PM,57.2,42.8,59,29.92,10.0,Calm,Calm,-,N/A,,Clear,0,2013-04-13 00:15:00
7:35 PM,55.4,42.8,63,29.92,10.0,Calm,Calm,-,N/A,,Clear,0,2013-04-13 00:35:00
7:55 PM,55.4,42.8,63,29.93,10.0,Calm,Calm,-,N/A,,Clear,0,2013-04-13 00:55:00
8:15 PM,53.6,42.8,67,29.93,10.0,Calm,Calm,-,N/A,,Clear,0,2013-04-13 01:15:00
8:35 PM,51.8,42.8,71,29.94,10.0,Calm,Calm,-,N/A,,Clear,0,2013-04-13 01:35:00
8:55 PM,51.8,42.8,71,29.95,10.0,Calm,Calm,-,N/A,,Clear,0,2013-04-13 01:55:00
9:15 PM,51.8,42.8,71,29.96,10.0,Calm,Calm,-,N/A,,Clear,0,2013-04-13 02:15:00
9:35 PM,50.0,42.8,76,29.97,10.0,Calm,Calm,-,N/A,,Clear,0,2013-04-13 02:35:00
9:55 PM,50.0,42.8,76,29.97,10.0,Calm,Calm,-,N/A,,Clear,0,2013-04-13 02:55:00
10:15 PM,48.2,44.6,87,29.98,10.0,Calm,Calm,-,N/A,,Clear,0,2013-04-13 03:15:00
10:35 PM,48.2,42.8,82,29.99,10.0,Calm,Calm,-,N/A,,Clear,0,2013-04-13 03:35:00
10:55 PM,46.4,42.8,87,29.99,10.0,Calm,Calm,-,N/A,,Clear,0,2013-04-13 03:55:00
11:15 PM,46.4,42.8,87,29.99,10.0,Calm,Calm,-,N/A,,Clear,0,2013-04-13 04:15:00
11:35 PM,46.4,42.8,87,29.99,10.0,Calm,Calm,-,N/A,,Clear,0,2013-04-13 04:35:00
11:55 PM,46.4,42.8,87,29.99,10.0,Calm,Calm,-,N/A,,Clear,0,2013-04-13 04:55:00